Time,TemperatureF,DewpointF,PressureIn,WindDirection,WindDirectionDegrees,WindSpeedMPH,WindSpeedGustMPH,Humidity,HourlyPrecipIn,Conditions,Clouds,dailyrainin,SoftwareType,DateUTC
2013-03-04 00:01:00,45.3,35.4,29.56,ESE,119,7.0,9.0,68,0.00,,,0.00,Wunderground v.1.15,2013-03-04 06:01:00,
2013-03-04 00:07:00,45.3,35.4,29.56,ESE,114,7.0,9.0,68,0.00,,,0.00,Wunderground v.1.15,2013-03-04 06:07:00,
2013-03-04 00:12:00,45.1,35.2,29.56,SE,132,7.0,9.0,68,0.00,,,0.00,Wunderground v.1.15,2013-03-04 06:12:00,
2013-03-04 00:18:00,45.0,35.1,29.56,SE,134,7.0,9.0,68,0.00,,,0.00,Wunderground v.1.15,2013-03-04 06:18:00,
2013-03-04 00:23:00,45.0,35.1,29.56,ESE,120,7.0,11.0,68,0.00,,,0.00,Wunderground v.1.15,2013-03-04 06:23:00,
2013-03-04 00:29:00,45.1,35.2,29.55,SE,127,7.0,11.0,68,0.00,,,0.00,Wunderground v.1.15,2013-03-04 06:29:00,
2013-03-04 00:34:00,45.1,35.2,29.55,SE,137,7.0,8.0,68,0.00,,,0.00,Wunderground v.1.15,2013-03-04 06:34:00,
2013-03-04 00:40:00,45.3,35.0,29.55,ESE,119,7.0,8.0,67,0.00,,,0.00,Wunderground v.1.15,2013-03-04 06:40:00,
2013-03-04 00:45:00,45.3,35.0,29.55,ESE,109,7.0,10.0,67,0.00,,,0.00,Wunderground v.1.15,2013-03-04 06:45:00,
2013-03-04 00:51:00,45.2,34.9,29.55,East,101,8.0,9.0,67,0.00,,,0.00,Wunderground v.1.15,2013-03-04 06:51:00,
2013-03-04 00:57:00,45.2,35.3,29.54,ESE,111,8.0,10.0,68,0.00,,,0.00,Wunderground v.1.15,2013-03-04 06:57:00,
2013-03-04 01:02:00,45.2,35.3,29.54,ESE,110,8.0,10.0,68,0.00,,,0.00,Wunderground v.1.15,2013-03-04 07:02:00,
2013-03-04 01:08:00,45.1,35.2,29.54,ESE,115,8.0,10.0,68,0.00,,,0.00,Wunderground v.1.15,2013-03-04 07:08:00,
2013-03-04 01:13:00,45.2,35.3,29.54,ESE,107,8.0,10.0,68,0.00,,,0.00,Wunderground v.1.15,2013-03-04 07:13:00,
2013-03-04 01:18:00,45.2,35.3,29.54,ESE,113,8.0,11.0,68,0.00,,,0.00,Wunderground v.1.15,2013-03-04 07:18:00,
2013-03-04 01:24:00,45.2,35.3,29.54,SE,130,7.0,9.0,68,0.00,,,0.00,Wunderground v.1.15,2013-03-04 07:24:00,
2013-03-04 01:29:00,45.1,35.2,29.54,ESE,119,6.0,9.0,68,0.00,,,0.00,Wunderground v.1.15,2013-03-04 07:29:00,
2013-03-04 01:34:00,45.0,35.1,29.54,ESE,109,7.0,8.0,68,0.00,,,0.00,Wunderground v.1.15,2013-03-04 07:34:00,
2013-03-04 01:40:00,44.8,35.2,29.54,ESE,117,7.0,10.0,69,0.00,,,0.00,Wunderground v.1.15,2013-03-04 07:40:00,
2013-03-04 01:45:00,44.8,35.2,29.53,SE,124,8.0,10.0,69,0.00,,,0.00,Wunderground v.1.15,2013-03-04 07:45:00,
2013-03-04 01:51:00,44.8,35.2,29.53,ESE,116,8.0,10.0,69,0.00,,,0.00,Wunderground v.1.15,2013-03-04 07:51:00,
2013-03-04 01:56:00,44.5,35.0,29.53,ESE,104,7.0,10.0,69,0.00,,,0.00,Wunderground v.1.15,2013-03-04 07:56:00,
2013-03-04 02:02:00,43.8,35.0,29.53,East,84,7.0,9.0,71,0.00,,,0.00,Wunderground v.1.15,2013-03-04 08:02:00,
2013-03-04 02:08:00,43.5,35.1,29.53,East,90,7.0,9.0,72,0.00,,,0.00,Wunderground v.1.15,2013-03-04 08:08:00,
2013-03-04 02:13:00,43.4,35.0,29.54,East,79,7.0,8.0,72,0.00,,,0.00,Wunderground v.1.15,2013-03-04 08:13:00,
2013-03-04 02:19:00,43.2,35.1,29.54,ENE,78,7.0,8.0,73,0.00,,,0.00,Wunderground v.1.15,2013-03-04 08:19:00,
2013-03-04 02:24:00,42.9,34.8,29.53,East,82,7.0,9.0,73,0.00,,,0.00,Wunderground v.1.15,2013-03-04 08:24:00,
2013-03-04 02:30:00,42.8,35.1,29.53,ENE,69,7.0,7.0,74,0.00,,,0.00,Wunderground v.1.15,2013-03-04 08:30:00,
2013-03-04 02:36:00,42.3,34.6,29.53,ESE,109,5.0,7.0,74,0.00,,,0.00,Wunderground v.1.15,2013-03-04 08:36:00,
2013-03-04 02:42:00,42.6,34.9,29.52,SE,127,5.0,8.0,74,0.00,,,0.00,Wunderground v.1.15,2013-03-04 08:42:00,
2013-03-04 02:47:00,43.2,35.1,29.52,ESE,108,5.0,8.0,73,0.00,,,0.00,Wunderground v.1.15,2013-03-04 08:47:00,
2013-03-04 02:53:00,43.6,35.2,29.52,ESE,109,6.0,8.0,72,0.00,,,0.00,Wunderground v.1.15,2013-03-04 08:53:00,
2013-03-04 02:58:00,43.6,35.2,29.51,SE,131,6.0,8.0,72,0.00,,,0.00,Wunderground v.1.15,2013-03-04 08:58:00,
2013-03-04 03:03:00,43.9,35.1,29.51,ESE,115,7.0,8.0,71,0.00,,,0.00,Wunderground v.1.15,2013-03-04 09:03:00,
2013-03-04 03:09:00,43.5,35.1,29.51,East,92,7.0,8.0,72,0.00,,,0.00,Wunderground v.1.15,2013-03-04 09:09:00,
2013-03-04 03:14:00,43.1,35.0,29.51,East,90,6.0,7.0,73,0.00,,,0.00,Wunderground v.1.15,2013-03-04 09:14:00,
2013-03-04 03:19:00,42.8,34.7,29.51,East,88,6.0,7.0,73,0.00,,,0.00,Wunderground v.1.15,2013-03-04 09:19:00,
2013-03-04 03:25:00,42.5,34.8,29.51,East,92,7.0,8.0,74,0.00,,,0.00,Wunderground v.1.15,2013-03-04 09:25:00,
2013-03-04 03:30:00,42.4,34.7,29.51,East,80,6.0,6.0,74,0.00,,,0.00,Wunderground v.1.15,2013-03-04 09:30:00,
2013-03-04 03:36:00,42.3,34.6,29.50,East,85,6.0,8.0,74,0.00,,,0.00,Wunderground v.1.15,2013-03-04 09:36:00,
2013-03-04 03:41:00,42.4,34.7,29.50,ESE,118,6.0,7.0,74,0.00,,,0.00,Wunderground v.1.15,2013-03-04 09:41:00,
2013-03-04 03:47:00,42.6,34.5,29.50,East,90,7.0,7.0,73,0.00,,,0.00,Wunderground v.1.15,2013-03-04 09:47:00,
2013-03-04 03:52:00,42.1,34.4,29.50,ENE,78,6.0,7.0,74,0.00,,,0.00,Wunderground v.1.15,2013-03-04 09:52:00,
2013-03-04 03:58:00,41.3,34.0,29.50,ENE,65,7.0,8.0,75,0.00,,,0.00,Wunderground v.1.15,2013-03-04 09:58:00,
2013-03-04 04:04:00,41.1,34.4,29.50,ENE,64,7.0,8.0,77,0.00,,,0.00,Wunderground v.1.15,2013-03-04 10:04:00,
2013-03-04 04:09:00,40.8,34.1,29.50,ENE,59,7.0,9.0,77,0.00,,,0.00,Wunderground v.1.15,2013-03-04 10:09:00,
2013-03-04 04:15:00,40.8,34.1,29.50,NE,49,8.0,9.0,77,0.00,,,0.00,Wunderground v.1.15,2013-03-04 10:15:00,
2013-03-04 04:20:00,40.5,33.9,29.50,ENE,61,8.0,8.0,77,0.00,,,0.00,Wunderground v.1.15,2013-03-04 10:20:00,
2013-03-04 04:26:00,40.1,33.8,29.50,ENE,57,8.0,9.0,78,0.00,,,0.00,Wunderground v.1.15,2013-03-04 10:26:00,
2013-03-04 04:32:00,40.3,34.0,29.50,NE,42,8.0,9.0,78,0.00,,,0.00,Wunderground v.1.15,2013-03-04 10:32:00,
2013-03-04 04:37:00,40.4,34.1,29.50,ENE,61,8.0,9.0,78,0.00,,,0.00,Wunderground v.1.15,2013-03-04 10:37:00,
2013-03-04 04:43:00,39.9,33.6,29.50,ENE,61,8.0,9.0,78,0.00,,,0.00,Wunderground v.1.15,2013-03-04 10:43:00,
2013-03-04 04:48:00,39.8,33.8,29.50,ENE,63,8.0,9.0,79,0.00,,,0.00,Wunderground v.1.15,2013-03-04 10:48:00,
2013-03-04 04:54:00,39.8,33.8,29.50,ENE,61,8.0,9.0,79,0.00,,,0.00,Wunderground v.1.15,2013-03-04 10:54:00,
2013-03-04 04:59:00,39.6,33.3,29.50,NE,53,8.0,10.0,78,0.00,,,0.00,Wunderground v.1.15,2013-03-04 10:59:00,
2013-03-04 05:05:00,39.7,33.4,29.51,ENE,57,7.0,9.0,78,0.00,,,0.00,Wunderground v.1.15,2013-03-04 11:05:00,
2013-03-04 05:11:00,39.6,33.6,29.51,NE,48,6.0,6.0,79,0.00,,,0.00,Wunderground v.1.15,2013-03-04 11:11:00,
2013-03-04 05:16:00,39.5,33.5,29.51,NE,42,5.0,7.0,79,0.00,,,0.00,Wunderground v.1.15,2013-03-04 11:16:00,
2013-03-04 05:22:00,39.6,33.6,29.51,NE,39,5.0,6.0,79,0.00,,,0.00,Wunderground v.1.15,2013-03-04 11:22:00,
2013-03-04 05:27:00,40.2,33.9,29.52,NNE,32,5.0,7.0,78,0.00,,,0.00,Wunderground v.1.15,2013-03-04 11:27:00,
2013-03-04 05:33:00,40.0,33.4,29.52,NNE,28,6.0,7.0,77,0.00,,,0.00,Wunderground v.1.15,2013-03-04 11:33:00,
2013-03-04 05:38:00,39.7,33.4,29.52,NNE,24,7.0,7.0,78,0.00,,,0.00,Wunderground v.1.15,2013-03-04 11:38:00,
2013-03-04 05:44:00,39.5,33.5,29.53,NNE,23,7.0,8.0,79,0.00,,,0.00,Wunderground v.1.15,2013-03-04 11:44:00,
2013-03-04 05:49:00,40.0,33.7,29.53,NNE,28,8.0,9.0,78,0.00,,,0.00,Wunderground v.1.15,2013-03-04 11:49:00,
2013-03-04 05:55:00,40.2,33.6,29.53,NNE,25,8.0,9.0,77,0.00,,,0.00,Wunderground v.1.15,2013-03-04 11:55:00,
2013-03-04 06:00:00,39.7,33.1,29.53,NNE,25,8.0,9.0,77,0.00,,,0.00,Wunderground v.1.15,2013-03-04 12:00:00,
2013-03-04 06:06:00,39.3,33.0,29.53,NNE,15,8.0,9.0,78,0.00,,,0.00,Wunderground v.1.15,2013-03-04 12:06:00,
2013-03-04 06:11:00,38.9,32.9,29.53,NNE,22,8.0,9.0,79,0.00,,,0.00,Wunderground v.1.15,2013-03-04 12:11:00,
2013-03-04 06:17:00,39.2,33.2,29.53,North,11,8.0,9.0,79,0.00,,,0.00,Wunderground v.1.15,2013-03-04 12:17:00,
2013-03-04 06:23:00,39.1,33.1,29.54,North,9,8.0,8.0,79,0.00,,,0.00,Wunderground v.1.15,2013-03-04 12:23:00,
2013-03-04 06:29:00,39.2,33.2,29.55,North,5,7.0,9.0,79,0.00,,,0.00,Wunderground v.1.15,2013-03-04 12:29:00,
2013-03-04 06:34:00,38.9,32.9,29.55,North,360,8.0,9.0,79,0.00,,,0.00,Wunderground v.1.15,2013-03-04 12:34:00,
2013-03-04 06:40:00,38.5,32.9,29.54,NNW,346,9.0,11.0,80,0.00,,,0.00,Wunderground v.1.15,2013-03-04 12:40:00,
2013-03-04 06:45:00,38.1,32.5,29.55,North,5,10.0,12.0,80,0.00,,,0.00,Wunderground v.1.15,2013-03-04 12:45:00,
2013-03-04 06:51:00,38.0,32.7,29.55,North,5,10.0,11.0,81,0.00,,,0.00,Wunderground v.1.15,2013-03-04 12:51:00,
2013-03-04 06:57:00,37.9,32.6,29.55,NNE,20,9.0,11.0,81,0.00,,,0.00,Wunderground v.1.15,2013-03-04 12:57:00,
2013-03-04 07:02:00,37.7,32.4,29.55,NNE,12,9.0,11.0,81,0.00,,,0.00,Wunderground v.1.15,2013-03-04 13:02:00,
2013-03-04 07:08:00,37.5,32.2,29.55,NNE,16,9.0,11.0,81,0.00,,,0.00,Wunderground v.1.15,2013-03-04 13:08:00,
2013-03-04 07:14:00,37.3,32.3,29.55,NNE,16,9.0,11.0,82,0.00,,,0.00,Wunderground v.1.15,2013-03-04 13:14:00,
2013-03-04 07:20:00,37.0,32.3,29.55,NNE,12,9.0,11.0,83,0.00,,,0.00,Wunderground v.1.15,2013-03-04 13:20:00,
2013-03-04 07:25:00,37.4,32.7,29.55,North,9,9.0,11.0,83,0.00,,,0.00,Wunderground v.1.15,2013-03-04 13:25:00,
2013-03-04 07:30:00,38.1,32.8,29.56,North,5,10.0,10.0,81,0.00,,,0.00,Wunderground v.1.15,2013-03-04 13:30:00,
2013-03-04 07:36:00,38.1,32.8,29.56,NNE,15,11.0,13.0,81,0.00,,,0.00,Wunderground v.1.15,2013-03-04 13:36:00,
2013-03-04 07:41:00,37.9,32.9,29.56,NNE,15,10.0,10.0,82,0.00,,,0.00,Wunderground v.1.15,2013-03-04 13:41:00,
2013-03-04 07:47:00,37.9,32.9,29.56,NNE,15,9.0,10.0,82,0.00,,,0.00,Wunderground v.1.15,2013-03-04 13:47:00,
2013-03-04 07:52:00,38.0,33.0,29.56,North,9,9.0,10.0,82,0.00,,,0.00,Wunderground v.1.15,2013-03-04 13:52:00,
2013-03-04 07:58:00,38.6,33.3,29.56,NNE,24,8.0,10.0,81,0.00,,,0.00,Wunderground v.1.15,2013-03-04 13:58:00,
2013-03-04 08:04:00,38.9,33.3,29.57,NNE,25,8.0,11.0,80,0.00,,,0.00,Wunderground v.1.15,2013-03-04 14:04:00,
2013-03-04 08:09:00,38.9,32.9,29.57,NNE,20,9.0,11.0,79,0.00,,,0.00,Wunderground v.1.15,2013-03-04 14:09:00,
2013-03-04 08:15:00,39.0,33.4,29.57,NNE,13,8.0,11.0,80,0.00,,,0.00,Wunderground v.1.15,2013-03-04 14:15:00,
2013-03-04 08:21:00,39.1,33.8,29.57,North,5,9.0,10.0,81,0.00,,,0.00,Wunderground v.1.15,2013-03-04 14:21:00,
2013-03-04 08:26:00,39.4,34.1,29.57,North,5,9.0,10.0,81,0.00,,,0.00,Wunderground v.1.15,2013-03-04 14:26:00,
2013-03-04 08:32:00,40.3,34.3,29.58,NNE,14,8.0,9.0,79,0.00,,,0.00,Wunderground v.1.15,2013-03-04 14:32:00,
2013-03-04 08:37:00,40.7,34.4,29.58,North,355,7.0,9.0,78,0.00,,,0.00,Wunderground v.1.15,2013-03-04 14:37:00,
2013-03-04 08:42:00,40.8,34.1,29.58,North,5,7.0,9.0,77,0.00,,,0.00,Wunderground v.1.15,2013-03-04 14:42:00,
2013-03-04 08:48:00,41.0,34.3,29.58,North,350,7.0,9.0,77,0.00,,,0.00,Wunderground v.1.15,2013-03-04 14:48:00,
2013-03-04 08:54:00,41.3,34.6,29.58,North,355,7.0,8.0,77,0.00,,,0.00,Wunderground v.1.15,2013-03-04 14:54:00,
2013-03-04 08:59:00,41.5,34.5,29.59,North,360,7.0,9.0,76,0.00,,,0.00,Wunderground v.1.15,2013-03-04 14:59:00,
2013-03-04 09:04:00,41.8,35.1,29.59,North,355,8.0,9.0,77,0.00,,,0.00,Wunderground v.1.15,2013-03-04 15:04:00,
2013-03-04 09:10:00,42.3,35.6,29.59,NNW,343,8.0,8.0,77,0.00,,,0.00,Wunderground v.1.15,2013-03-04 15:10:00,
2013-03-04 09:16:00,42.7,35.7,29.59,NNW,334,7.0,8.0,76,0.00,,,0.00,Wunderground v.1.15,2013-03-04 15:16:00,
2013-03-04 09:22:00,42.7,35.7,29.59,NNW,340,7.0,9.0,76,0.00,,,0.00,Wunderground v.1.15,2013-03-04 15:22:00,
2013-03-04 09:28:00,43.0,35.6,29.59,North,5,7.0,9.0,75,0.00,,,0.00,Wunderground v.1.15,2013-03-04 15:28:00,
2013-03-04 09:33:00,43.3,35.6,29.59,NNW,343,6.0,7.0,74,0.00,,,0.00,Wunderground v.1.15,2013-03-04 15:33:00,
2013-03-04 09:39:00,43.7,36.0,29.59,North,355,7.0,8.0,74,0.00,,,0.00,Wunderground v.1.15,2013-03-04 15:39:00,
2013-03-04 09:44:00,44.0,35.9,29.59,North,355,6.0,7.0,73,0.00,,,0.00,Wunderground v.1.15,2013-03-04 15:44:00,
2013-03-04 09:50:00,44.1,36.0,29.59,NNW,347,6.0,7.0,73,0.00,,,0.00,Wunderground v.1.15,2013-03-04 15:50:00,
2013-03-04 09:56:00,44.5,36.4,29.59,North,5,6.0,8.0,73,0.00,,,0.00,Wunderground v.1.15,2013-03-04 15:56:00,
2013-03-04 10:02:00,44.8,36.3,29.60,NNW,347,7.0,8.0,72,0.00,,,0.00,Wunderground v.1.15,2013-03-04 16:02:00,
2013-03-04 10:08:00,44.7,36.2,29.60,NNW,338,7.0,8.0,72,0.00,,,0.00,Wunderground v.1.15,2013-03-04 16:08:00,
2013-03-04 10:13:00,44.7,36.6,29.60,NNW,344,7.0,9.0,73,0.00,,,0.00,Wunderground v.1.15,2013-03-04 16:13:00,
2013-03-04 10:18:00,44.9,36.4,29.60,NNW,336,8.0,10.0,72,0.00,,,0.00,Wunderground v.1.15,2013-03-04 16:18:00,
2013-03-04 10:24:00,45.1,36.3,29.61,North,355,7.0,9.0,71,0.00,,,0.00,Wunderground v.1.15,2013-03-04 16:24:00,
2013-03-04 10:30:00,45.5,37.0,29.61,North,349,7.0,12.0,72,0.00,,,0.00,Wunderground v.1.15,2013-03-04 16:30:00,
2013-03-04 10:35:00,45.6,37.1,29.61,North,351,8.0,12.0,72,0.00,,,0.00,Wunderground v.1.15,2013-03-04 16:35:00,
2013-03-04 10:41:00,45.8,37.3,29.61,North,350,8.0,10.0,72,0.00,,,0.00,Wunderground v.1.15,2013-03-04 16:41:00,
2013-03-04 10:47:00,45.5,36.3,29.61,NNW,329,9.0,12.0,70,0.00,,,0.00,Wunderground v.1.15,2013-03-04 16:47:00,
2013-03-04 10:53:00,45.6,37.4,29.61,North,5,10.0,14.0,73,0.00,,,0.00,Wunderground v.1.15,2013-03-04 16:53:00,
2013-03-04 10:59:00,45.2,36.7,29.61,NNW,342,12.0,17.0,72,0.00,,,0.00,Wunderground v.1.15,2013-03-04 16:59:00,
2013-03-04 11:05:00,44.9,36.4,29.62,North,355,14.0,18.0,72,0.00,,,0.00,Wunderground v.1.15,2013-03-04 17:05:00,
2013-03-04 11:10:00,44.9,36.8,29.62,NNW,348,14.0,17.0,73,0.00,,,0.00,Wunderground v.1.15,2013-03-04 17:10:00,
2013-03-04 11:16:00,44.4,36.6,29.62,North,5,16.0,24.0,74,0.00,,,0.00,Wunderground v.1.15,2013-03-04 17:16:00,
2013-03-04 11:21:00,44.2,36.8,29.62,North,5,18.0,23.0,75,0.00,,,0.00,Wunderground v.1.15,2013-03-04 17:21:00,
2013-03-04 11:27:00,44.3,36.9,29.62,NNE,19,17.0,23.0,75,0.00,,,0.00,Wunderground v.1.15,2013-03-04 17:27:00,
2013-03-04 11:32:00,43.9,36.8,29.62,NNE,14,18.0,23.0,76,0.00,,,0.00,Wunderground v.1.15,2013-03-04 17:32:00,
2013-03-04 11:38:00,43.2,36.1,29.63,North,355,20.0,25.0,76,0.00,,,0.00,Wunderground v.1.15,2013-03-04 17:38:00,
2013-03-04 11:43:00,43.3,36.6,29.63,North,350,20.0,24.0,77,0.00,,,0.00,Wunderground v.1.15,2013-03-04 17:43:00,
2013-03-04 11:49:00,43.3,36.6,29.63,North,351,20.0,25.0,77,0.00,,,0.00,Wunderground v.1.15,2013-03-04 17:49:00,
2013-03-04 11:56:00,43.4,36.7,29.63,North,360,19.0,23.0,77,0.00,,,0.00,Wunderground v.1.15,2013-03-04 17:56:00,
2013-03-04 12:01:00,44.1,38.0,29.63,North,5,16.0,17.0,79,0.19,,,0.07,Wunderground v.1.15,2013-03-04 18:01:00,
2013-03-04 12:07:00,44.7,37.6,29.63,WSW,254,5.0,17.0,76,0.07,,,0.07,Wunderground v.1.15,2013-03-04 18:07:00,
2013-03-04 12:12:00,45.1,38.0,29.63,WNW,300,3.0,4.0,76,0.04,,,0.07,Wunderground v.1.15,2013-03-04 18:12:00,
2013-03-04 12:18:00,46.1,39.0,29.63,NW,314,3.0,4.0,76,0.00,,,0.07,Wunderground v.1.15,2013-03-04 18:18:00,
2013-03-04 12:23:00,46.0,38.5,29.63,NW,312,3.0,4.0,75,0.00,,,0.07,Wunderground v.1.15,2013-03-04 18:23:00,
2013-03-04 12:28:00,45.5,38.7,29.63,East,92,3.0,4.0,77,0.00,,,0.07,Wunderground v.1.15,2013-03-04 18:28:00,
2013-03-04 12:30:00,45.4,38.6,29.63,NE,52,3.0,3.0,77,0.00,,,0.07,Wunderground v.1.15,2013-03-04 18:30:00,
2013-03-04 12:31:00,45.4,38.6,29.63,ENE,63,3.0,4.0,77,0.00,,,0.07,Wunderground v.1.15,2013-03-04 18:31:00,
2013-03-04 12:35:00,45.1,38.6,29.63,ENE,61,3.0,5.0,78,0.00,,,0.07,Wunderground v.1.15,2013-03-04 18:35:00,
2013-03-04 12:40:00,44.9,38.8,29.63,ENE,57,3.0,3.0,79,0.00,,,0.07,Wunderground v.1.15,2013-03-04 18:40:00,
2013-03-04 12:46:00,44.8,38.4,29.63,ENE,75,3.0,8.0,78,0.00,,,0.07,Wunderground v.1.15,2013-03-04 18:46:00,
2013-03-04 12:52:00,45.2,39.1,29.63,NNW,334,3.0,4.0,79,0.00,,,0.07,Wunderground v.1.15,2013-03-04 18:52:00,
2013-03-04 12:57:00,45.2,38.7,29.64,NNW,341,3.0,5.0,78,0.00,,,0.07,Wunderground v.1.15,2013-03-04 18:57:00,
2013-03-04 13:02:00,45.1,39.0,29.62,WNW,303,3.0,4.0,79,0.00,,,0.07,Wunderground v.1.15,2013-03-04 19:02:00,
2013-03-04 13:08:00,45.6,38.8,29.62,NW,319,3.0,5.0,77,0.00,,,0.07,Wunderground v.1.15,2013-03-04 19:08:00,
2013-03-04 13:13:00,45.1,38.6,29.62,SW,234,3.0,5.0,78,0.00,,,0.07,Wunderground v.1.15,2013-03-04 19:13:00,
2013-03-04 13:19:00,45.2,38.7,29.62,North,355,3.0,6.0,78,0.00,,,0.07,Wunderground v.1.15,2013-03-04 19:19:00,
2013-03-04 13:25:00,45.3,38.8,29.62,NNE,23,2.0,4.0,78,0.00,,,0.07,Wunderground v.1.15,2013-03-04 19:25:00,
2013-03-04 13:31:00,45.4,38.9,29.62,NE,54,2.0,4.0,78,0.00,,,0.07,Wunderground v.1.15,2013-03-04 19:31:00,
2013-03-04 13:37:00,45.9,39.8,29.62,North,360,2.0,4.0,79,0.00,,,0.07,Wunderground v.1.15,2013-03-04 19:37:00,
2013-03-04 13:43:00,45.5,39.4,29.62,East,86,2.0,5.0,79,0.00,,,0.07,Wunderground v.1.15,2013-03-04 19:43:00,
2013-03-04 13:48:00,45.2,38.7,29.62,NNW,338,2.0,5.0,78,0.00,,,0.07,Wunderground v.1.15,2013-03-04 19:48:00,
2013-03-04 13:54:00,45.4,38.9,29.62,ENE,65,3.0,5.0,78,0.00,,,0.07,Wunderground v.1.15,2013-03-04 19:54:00,
2013-03-04 14:00:00,45.8,39.3,29.62,NNE,17,3.0,5.0,78,0.00,,,0.07,Wunderground v.1.15,2013-03-04 20:00:00,
2013-03-04 14:05:00,44.6,38.8,29.63,NNW,346,7.0,21.0,80,0.00,,,0.07,Wunderground v.1.15,2013-03-04 20:05:00,
2013-03-04 14:11:00,44.0,37.9,29.62,NNW,341,15.0,25.0,79,0.00,,,0.07,Wunderground v.1.15,2013-03-04 20:11:00,
2013-03-04 14:16:00,44.0,38.2,29.63,NNW,345,19.0,26.0,80,0.00,,,0.07,Wunderground v.1.15,2013-03-04 20:16:00,
2013-03-04 14:22:00,43.9,38.1,29.63,North,355,21.0,25.0,80,0.00,,,0.07,Wunderground v.1.15,2013-03-04 20:22:00,
2013-03-04 14:28:00,43.5,37.7,29.63,NNW,347,21.0,27.0,80,0.00,,,0.00,Wunderground v.1.15,2013-03-04 20:28:00,
2013-03-04 14:34:00,43.6,37.8,29.63,NNW,348,21.0,28.0,80,0.00,,,0.00,Wunderground v.1.15,2013-03-04 20:34:00,
2013-03-04 14:40:00,44.3,38.2,29.63,North,11,20.0,20.0,79,0.00,,,0.00,Wunderground v.1.15,2013-03-04 20:40:00,
2013-03-04 14:45:00,44.3,38.5,29.63,NNW,348,19.0,26.0,80,0.00,,,0.00,Wunderground v.1.15,2013-03-04 20:45:00,
2013-03-04 14:51:00,44.2,38.1,29.63,NNW,343,19.0,24.0,79,0.00,,,0.00,Wunderground v.1.15,2013-03-04 20:51:00,
2013-03-04 14:56:00,44.5,38.7,29.64,North,355,18.0,24.0,80,0.00,,,0.00,Wunderground v.1.15,2013-03-04 20:56:00,
2013-03-04 15:02:00,44.6,38.8,29.64,NNW,343,18.0,24.0,80,0.00,,,0.00,Wunderground v.1.15,2013-03-04 21:02:00,
2013-03-04 15:08:00,44.3,38.2,29.64,NNW,348,18.0,24.0,79,0.00,,,0.00,Wunderground v.1.15,2013-03-04 21:08:00,
2013-03-04 15:14:00,44.0,37.9,29.65,North,355,19.0,24.0,79,0.00,,,0.00,Wunderground v.1.15,2013-03-04 21:14:00,
2013-03-04 15:19:00,44.3,38.5,29.65,North,360,19.0,24.0,80,0.00,,,0.00,Wunderground v.1.15,2013-03-04 21:19:00,
2013-03-04 15:24:00,44.6,38.8,29.65,North,349,17.0,22.0,80,0.00,,,0.00,Wunderground v.1.15,2013-03-04 21:24:00,
2013-03-04 15:30:00,44.2,38.4,29.65,NNW,331,16.0,22.0,80,0.00,,,0.00,Wunderground v.1.15,2013-03-04 21:30:00,
2013-03-04 15:35:00,44.1,38.0,29.66,North,350,17.0,21.0,79,0.00,,,0.00,Wunderground v.1.15,2013-03-04 21:35:00,
2013-03-04 15:41:00,43.8,37.7,29.66,NNW,346,18.0,18.0,79,0.00,,,0.00,Wunderground v.1.15,2013-03-04 21:41:00,
2013-03-04 15:46:00,43.8,37.7,29.66,NNW,340,17.0,25.0,79,0.00,,,0.00,Wunderground v.1.15,2013-03-04 21:46:00,
2013-03-04 15:52:00,43.9,38.1,29.66,North,360,16.0,20.0,80,0.00,,,0.00,Wunderground v.1.15,2013-03-04 21:52:00,
2013-03-04 15:57:00,44.4,38.3,29.67,North,11,17.0,21.0,79,0.00,,,0.00,Wunderground v.1.15,2013-03-04 21:57:00,
2013-03-04 16:02:00,44.6,38.5,29.67,NNE,17,17.0,20.0,79,0.00,,,0.00,Wunderground v.1.15,2013-03-04 22:02:00,
2013-03-04 16:08:00,44.7,38.6,29.67,North,349,15.0,20.0,79,0.00,,,0.00,Wunderground v.1.15,2013-03-04 22:08:00,
2013-03-04 16:13:00,44.8,38.7,29.68,North,5,14.0,19.0,79,0.00,,,0.00,Wunderground v.1.15,2013-03-04 22:13:00,
2013-03-04 16:19:00,44.6,38.5,29.68,NNW,347,15.0,20.0,79,0.00,,,0.00,Wunderground v.1.15,2013-03-04 22:19:00,
2013-03-04 16:25:00,44.3,37.9,29.68,North,351,16.0,22.0,78,0.00,,,0.00,Wunderground v.1.15,2013-03-04 22:25:00,
2013-03-04 16:31:00,44.6,38.5,29.69,NNE,18,16.0,16.0,79,0.00,,,0.00,Wunderground v.1.15,2013-03-04 22:31:00,
2013-03-04 16:36:00,45.4,38.9,29.69,North,10,14.0,22.0,78,0.00,,,0.00,Wunderground v.1.15,2013-03-04 22:36:00,
2013-03-04 16:41:00,44.7,37.9,29.69,North,5,16.0,25.0,77,0.00,,,0.00,Wunderground v.1.15,2013-03-04 22:41:00,
2013-03-04 16:47:00,44.4,38.0,29.69,North,351,18.0,25.0,78,0.00,,,0.00,Wunderground v.1.15,2013-03-04 22:47:00,
2013-03-04 16:52:00,44.5,38.1,29.70,NNW,346,17.0,19.0,78,0.00,,,0.00,Wunderground v.1.15,2013-03-04 22:52:00,
2013-03-04 16:58:00,44.4,38.0,29.71,North,355,16.0,21.0,78,0.00,,,0.00,Wunderground v.1.15,2013-03-04 22:58:00,
2013-03-04 17:03:00,44.3,37.9,29.72,North,5,16.0,18.0,78,0.00,,,0.00,Wunderground v.1.15,2013-03-04 23:03:00,
2013-03-04 17:09:00,44.1,38.3,29.73,NNW,341,17.0,26.0,80,0.00,,,0.00,Wunderground v.1.15,2013-03-04 23:09:00,
2013-03-04 17:14:00,43.9,37.8,29.73,NNW,338,16.0,21.0,79,0.00,,,0.00,Wunderground v.1.15,2013-03-04 23:14:00,
2013-03-04 17:19:00,43.6,38.2,29.74,NNW,336,16.0,21.0,81,0.00,,,0.00,Wunderground v.1.15,2013-03-04 23:19:00,
2013-03-04 17:25:00,43.3,37.9,29.74,North,360,16.0,24.0,81,0.00,,,0.00,Wunderground v.1.15,2013-03-04 23:25:00,
2013-03-04 17:30:00,43.1,37.7,29.75,NNW,342,17.0,22.0,81,0.00,,,0.00,Wunderground v.1.15,2013-03-04 23:30:00,
2013-03-04 17:36:00,42.7,37.3,29.75,North,9,18.0,23.0,81,0.00,,,0.00,Wunderground v.1.15,2013-03-04 23:36:00,
2013-03-04 17:41:00,42.6,37.2,29.76,NNW,344,17.0,21.0,81,0.00,,,0.00,Wunderground v.1.15,2013-03-04 23:41:00,
2013-03-04 17:47:00,42.5,37.1,29.76,NNW,342,16.0,22.0,81,0.00,,,0.00,Wunderground v.1.15,2013-03-04 23:47:00,
2013-03-04 17:53:00,42.3,36.9,29.76,NNW,342,17.0,24.0,81,0.00,,,0.00,Wunderground v.1.15,2013-03-04 23:53:00,
2013-03-04 17:58:00,42.2,36.8,29.77,NNW,344,18.0,27.0,81,0.00,,,0.00,Wunderground v.1.15,2013-03-04 23:58:00,
2013-03-04 18:03:00,42.2,36.8,29.77,NW,325,17.0,19.0,81,0.00,,,0.00,Wunderground v.1.15,2013-03-05 00:03:00,
2013-03-04 18:09:00,42.1,36.7,29.77,North,355,16.0,23.0,81,0.00,,,0.00,Wunderground v.1.15,2013-03-05 00:09:00,
2013-03-04 18:14:00,42.0,36.6,29.77,NNW,347,18.0,30.0,81,0.00,,,0.00,Wunderground v.1.15,2013-03-05 00:14:00,
2013-03-04 18:20:00,41.9,36.5,29.77,NNW,331,20.0,30.0,81,0.00,,,0.00,Wunderground v.1.15,2013-03-05 00:20:00,
2013-03-04 18:26:00,41.8,36.4,29.77,NNW,340,21.0,28.0,81,0.00,,,0.00,Wunderground v.1.15,2013-03-05 00:26:00,
2013-03-04 18:31:00,41.6,36.5,29.78,NNW,340,20.0,24.0,82,0.00,,,0.00,Wunderground v.1.15,2013-03-05 00:31:00,
2013-03-04 18:37:00,41.6,36.5,29.79,North,349,19.0,28.0,82,0.00,,,0.00,Wunderground v.1.15,2013-03-05 00:37:00,
2013-03-04 18:42:00,41.6,36.5,29.80,NNW,340,19.0,23.0,82,0.00,,,0.00,Wunderground v.1.15,2013-03-05 00:42:00,
2013-03-04 18:48:00,41.5,36.4,29.80,NNW,346,18.0,30.0,82,0.00,,,0.00,Wunderground v.1.15,2013-03-05 00:48:00,
2013-03-04 18:54:00,41.4,36.3,29.81,North,355,19.0,29.0,82,0.00,,,0.00,Wunderground v.1.15,2013-03-05 00:54:00,
2013-03-04 19:00:00,41.3,36.2,29.81,North,349,19.0,25.0,82,0.00,,,0.00,Wunderground v.1.15,2013-03-05 01:00:00,
2013-03-04 19:05:00,41.3,36.2,29.82,North,355,18.0,26.0,82,0.00,,,0.00,Wunderground v.1.15,2013-03-05 01:05:00,
2013-03-04 19:11:00,41.3,35.9,29.82,North,349,18.0,23.0,81,0.00,,,0.00,Wunderground v.1.15,2013-03-05 01:11:00,
2013-03-04 19:17:00,41.3,35.9,29.82,North,5,19.0,25.0,81,0.00,,,0.00,Wunderground v.1.15,2013-03-05 01:17:00,
2013-03-04 19:22:00,41.3,35.9,29.83,North,360,19.0,25.0,81,0.00,,,0.00,Wunderground v.1.15,2013-03-05 01:22:00,
2013-03-04 19:28:00,41.1,35.4,29.83,North,5,18.0,25.0,80,0.00,,,0.00,Wunderground v.1.15,2013-03-05 01:28:00,
2013-03-04 19:34:00,41.1,35.4,29.83,NE,35,19.0,28.0,80,0.00,,,0.00,Wunderground v.1.15,2013-03-05 01:34:00,
2013-03-04 19:39:00,41.0,35.3,29.83,North,5,21.0,30.0,80,0.00,,,0.00,Wunderground v.1.15,2013-03-05 01:39:00,
2013-03-04 19:45:00,41.1,35.4,29.84,North,351,20.0,32.0,80,0.00,,,0.00,Wunderground v.1.15,2013-03-05 01:45:00,
2013-03-04 19:50:00,41.0,35.3,29.84,North,5,20.0,25.0,80,0.00,,,0.00,Wunderground v.1.15,2013-03-05 01:50:00,
2013-03-04 19:56:00,40.9,35.2,29.84,North,5,21.0,29.0,80,0.00,,,0.00,Wunderground v.1.15,2013-03-05 01:56:00,
2013-03-04 20:02:00,40.9,35.2,29.86,North,355,21.0,26.0,80,0.00,,,0.00,Wunderground v.1.15,2013-03-05 02:02:00,
2013-03-04 20:08:00,40.7,35.0,29.86,North,10,20.0,26.0,80,0.00,,,0.00,Wunderground v.1.15,2013-03-05 02:08:00,
2013-03-04 20:14:00,40.9,34.9,29.87,North,355,20.0,27.0,79,0.00,,,0.00,Wunderground v.1.15,2013-03-05 02:14:00,
2013-03-04 20:20:00,40.8,34.8,29.88,North,350,21.0,30.0,79,0.00,,,0.00,Wunderground v.1.15,2013-03-05 02:20:00,
2013-03-04 20:25:00,40.8,34.8,29.89,North,355,20.0,30.0,79,0.00,,,0.00,Wunderground v.1.15,2013-03-05 02:25:00,
2013-03-04 20:31:00,40.6,34.6,29.90,North,355,20.0,27.0,79,0.00,,,0.00,Wunderground v.1.15,2013-03-05 02:31:00,
2013-03-04 20:36:00,40.3,34.6,29.91,NNE,19,22.0,31.0,80,0.00,,,0.00,Wunderground v.1.15,2013-03-05 02:36:00,
2013-03-04 20:42:00,40.0,34.6,29.91,North,11,21.0,27.0,81,0.00,,,0.01,Wunderground v.1.15,2013-03-05 02:42:00,
2013-03-04 20:48:00,39.9,34.9,29.92,NNW,337,21.0,27.0,82,0.06,,,0.01,Wunderground v.1.15,2013-03-05 02:48:00,
2013-03-04 20:53:00,40.1,34.7,29.93,NNE,27,22.0,38.0,81,0.06,,,0.02,Wunderground v.1.15,2013-03-05 02:53:00,
2013-03-04 20:59:00,40.0,34.6,29.94,North,355,20.0,38.0,81,0.05,,,0.02,Wunderground v.1.15,2013-03-05 02:59:00,
2013-03-04 21:04:00,40.0,34.6,29.95,North,360,18.0,26.0,81,0.04,,,0.02,Wunderground v.1.15,2013-03-05 03:04:00,
2013-03-04 21:09:00,40.0,34.9,29.96,NNW,344,18.0,26.0,82,0.00,,,0.02,Wunderground v.1.15,2013-03-05 03:09:00,
2013-03-04 21:15:00,39.8,35.1,29.96,NNE,24,19.0,27.0,83,0.00,,,0.02,Wunderground v.1.15,2013-03-05 03:15:00,
2013-03-04 21:21:00,39.5,35.1,29.96,North,5,19.0,23.0,84,0.00,,,0.02,Wunderground v.1.15,2013-03-05 03:21:00,
2013-03-04 21:26:00,39.4,35.3,29.96,North,360,18.0,26.0,85,0.00,,,0.02,Wunderground v.1.15,2013-03-05 03:26:00,
2013-03-04 21:32:00,39.4,35.3,29.97,North,350,17.0,21.0,85,0.00,,,0.03,Wunderground v.1.15,2013-03-05 03:32:00,
2013-03-04 21:37:00,39.4,35.3,29.97,North,360,17.0,21.0,85,0.00,,,0.03,Wunderground v.1.15,2013-03-05 03:37:00,
2013-03-04 21:43:00,39.3,35.5,29.98,NE,35,17.0,25.0,86,0.00,,,0.03,Wunderground v.1.15,2013-03-05 03:43:00,
2013-03-04 21:49:00,39.2,35.7,29.98,North,360,18.0,28.0,87,0.00,,,0.03,Wunderground v.1.15,2013-03-05 03:49:00,
2013-03-04 21:55:00,38.9,35.6,29.99,NNW,342,17.0,23.0,88,0.00,,,0.03,Wunderground v.1.15,2013-03-05 03:55:00,
2013-03-04 22:00:00,38.6,35.4,29.99,NNW,341,17.0,20.0,88,0.00,,,0.04,Wunderground v.1.15,2013-03-05 04:00:00,
2013-03-04 22:06:00,38.1,35.1,29.99,NNW,344,17.0,26.0,89,0.13,,,0.05,Wunderground v.1.15,2013-03-05 04:06:00,
2013-03-04 22:11:00,37.9,34.9,30.00,North,350,19.0,23.0,89,0.09,,,0.06,Wunderground v.1.15,2013-03-05 04:11:00,
2013-03-04 22:17:00,37.7,34.8,30.00,NNW,338,20.0,27.0,89,0.09,,,0.06,Wunderground v.1.15,2013-03-05 04:17:00,
2013-03-04 22:23:00,37.5,34.8,30.00,North,355,17.0,22.0,90,0.06,,,0.07,Wunderground v.1.15,2013-03-05 04:23:00,
2013-03-04 22:28:00,37.5,34.8,29.99,NNE,13,18.0,27.0,90,0.06,,,0.07,Wunderground v.1.15,2013-03-05 04:28:00,
2013-03-04 22:34:00,37.5,34.8,29.99,North,5,17.0,22.0,90,0.04,,,0.07,Wunderground v.1.15,2013-03-05 04:34:00,
2013-03-04 22:40:00,37.6,34.9,29.99,NNE,18,17.0,21.0,90,0.00,,,0.07,Wunderground v.1.15,2013-03-05 04:40:00,
2013-03-04 22:45:00,37.7,34.8,30.00,North,10,16.0,21.0,89,0.00,,,0.07,Wunderground v.1.15,2013-03-05 04:45:00,
2013-03-04 22:51:00,37.7,34.8,29.99,North,355,15.0,15.0,89,0.00,,,0.07,Wunderground v.1.15,2013-03-05 04:51:00,
2013-03-04 22:56:00,37.8,34.8,29.99,North,355,14.0,18.0,89,0.00,,,0.07,Wunderground v.1.15,2013-03-05 04:56:00,
2013-03-04 23:00:00,37.7,34.8,30.00,NNW,344,13.0,13.0,89,0.00,,,0.07,Wunderground v.1.15,2013-03-05 05:00:00,
2013-03-04 23:01:00,37.7,34.8,30.00,North,360,13.0,13.0,89,0.00,,,0.07,Wunderground v.1.15,2013-03-05 05:01:00,
2013-03-04 23:02:00,37.7,34.8,30.00,North,360,12.0,13.0,89,0.00,,,0.07,Wunderground v.1.15,2013-03-05 05:02:00,
2013-03-04 23:08:00,37.7,34.8,30.00,NNW,342,12.0,16.0,89,0.00,,,0.07,Wunderground v.1.15,2013-03-05 05:08:00,
2013-03-04 23:10:00,37.7,34.8,30.00,North,5,12.0,16.0,89,0.00,,,0.07,Wunderground v.1.15,2013-03-05 05:10:00,
2013-03-04 23:16:00,37.7,34.8,30.00,North,355,13.0,17.0,89,0.00,,,0.07,Wunderground v.1.15,2013-03-05 05:16:00,
2013-03-04 23:22:00,37.6,34.7,30.01,NNW,345,13.0,14.0,89,0.00,,,0.07,Wunderground v.1.15,2013-03-05 05:22:00,
2013-03-04 23:27:00,37.5,34.6,30.00,NNW,348,12.0,16.0,89,0.00,,,0.07,Wunderground v.1.15,2013-03-05 05:27:00,
2013-03-04 23:32:00,37.4,34.5,30.00,North,355,12.0,16.0,89,0.00,,,0.07,Wunderground v.1.15,2013-03-05 05:32:00,
2013-03-04 23:38:00,37.4,34.5,30.00,North,351,12.0,16.0,89,0.00,,,0.07,Wunderground v.1.15,2013-03-05 05:38:00,
2013-03-04 23:44:00,37.3,34.6,30.01,NNW,336,12.0,15.0,90,0.00,,,0.07,Wunderground v.1.15,2013-03-05 05:44:00,
2013-03-04 23:49:00,37.3,34.6,30.02,NNW,336,12.0,16.0,90,0.00,,,0.07,Wunderground v.1.15,2013-03-05 05:49:00,
2013-03-04 23:55:00,37.2,34.5,30.02,NNW,346,11.0,16.0,90,0.00,,,0.07,Wunderground v.1.15,2013-03-05 05:55:00,